(233410) = 2006 GQ19

Discovered at Kitt Peak on 2006-04-02 by Spacewatch.

Orbit

Orbit type: Main Belt

Note: WebGL enabled browser required.

epoch2024-03-31.0
epoch JD2460400.5
perihelion date2021-08-11.73043
perihelion JD2459438.23043
argument of perihelion (°)343.74235
ascending node (°)174.23288
inclination (°)5.11420
eccentricity0.1195653
perihelion distance (AU)2.6768192
Tisserand w.r.t. Jupiter3.2
ΔV w.r.t. Earth (km/sec)10.3
semimajor axis (AU)3.0403382
mean anomaly (°)178.90306
mean daily motion (°/day)0.18591780
aphelion distance (AU)3.404
period (years)5.3
P-vector [x]-0.92713381
P-vector [y]0.35297199
P-vector [z]0.12583189
Q-vector [x]-0.37462335
Q-vector [y]-0.88107761
Q-vector [z]-0.28872060
absolute magnitude15.87
phase slope0.15
uncertainty0
referenceMPEC 2024-E02
observations used519
oppositions17
arc length (days)11251
first opposition used1992
last opposition used2023
residual rms (arc-secs)0.74
perturbers coarse indicatorM-v
perturbers precise indicator003Ek
first observation date used1992-09-23.0
last observation date used2023-07-14.0
computer nameMPCLINUX
JD of orbit computation2456966.721876
perihelion JD uncertainty (days)1.2736E-04
argument of perihelion uncertainty (°)5.6007E-05
ascending node uncertainty (°)4.9861E-05
inclination uncertainty (°)7.6810E-06
eccentricity uncertainty 7.0693E-08
perihelion distance uncertainty (AU)2.2850E-07
Minimum Orbit Intersection Distances (in AU)
for orbit epoch: 2460400.5, reference: E2024-E02
Mercury2.3031
Venus1.96118
Earth1.68673
Mars1.0176
Jupiter1.58051
Saturn6.02422
Uranus15.7594
Neptune26.5127

Observations

537 total observations over interval: 1992 09 23.17972 – 2023 07 14.504992
These data are available for download (format description).

Date (UT) J2000 RA J2000 Dec Magn Location Ref
1992 09 23.17972 23 44 13.90 -02 00 29.9 20.7 V 691 – Steward Observatory, Kitt Peak-Spacewatch MPS 171645
1992 09 23.19784 23 44 13.13 -02 00 35.5   691 – Steward Observatory, Kitt Peak-Spacewatch MPS 171645
1992 09 23.21626 23 44 12.30 -02 00 42.0   691 – Steward Observatory, Kitt Peak-Spacewatch MPS 171645
2000 02 02.33138 08 58 14.82 +11 40 44.9 19.2   704 – Lincoln Laboratory ETS, New Mexico MPS 171645
2000 02 02.34537 08 58 14.10 +11 40 48.3 19.8   704 – Lincoln Laboratory ETS, New Mexico MPS 171645
2000 02 02.35941 08 58 13.36 +11 40 51.8 19.2   704 – Lincoln Laboratory ETS, New Mexico MPS 171645
2000 02 02.37348 08 58 12.80 +11 40 55.2 19.5   704 – Lincoln Laboratory ETS, New Mexico MPS 171645
2002 07 22.40779 21 17 11.55 -10 44 23.3 19.5 R 644 – Palomar Mountain/NEAT MPS 326273
2002 07 22.41947 21 17 11.04 -10 44 25.6 19.7 R 644 – Palomar Mountain/NEAT MPS 326273
2002 07 22.43233 21 17 10.59 -10 44 27.9 19.7 R 644 – Palomar Mountain/NEAT MPS 326273
2002 08 11.28198 21 02 36.69 -12 04 43.9 21.0   644 – Palomar Mountain/NEAT MPS 171645
2002 08 11.35727 21 02 33.21 -12 05 03.8 20.9   644 – Palomar Mountain/NEAT MPS 171645
2002 08 11.42123 21 02 30.25 -12 05 20.7 20.6   644 – Palomar Mountain/NEAT MPS 171645
2003 10 01.37272 01 27 29.09 +06 02 23.7 20.9 V 691 – Steward Observatory, Kitt Peak-Spacewatch MPS 171645
2003 10 01.39884 01 27 28.00 +06 02 15.4 21.0 V 691 – Steward Observatory, Kitt Peak-Spacewatch MPS 171645
2003 10 01.42513 01 27 26.92 +06 02 06.6 21.5 V 691 – Steward Observatory, Kitt Peak-Spacewatch MPS 171645
2006 01 04.51465 13 36 40.87 -09 04 19.9 21.5 V 691 – Steward Observatory, Kitt Peak-Spacewatch MPS 169219
2006 01 04.52959 13 36 41.85 -09 04 23.7 21.3 V 691 – Steward Observatory, Kitt Peak-Spacewatch MPS 169219
2006 01 04.54458 13 36 42.82 -09 04 29.0 21.8 V 691 – Steward Observatory, Kitt Peak-Spacewatch MPS 169219
2006 02 07.49439 14 06 09.32 -10 44 49.8 20.8 V G96 – Mt. Lemmon Survey MPS 169219
2006 02 07.50105 14 06 09.54 -10 44 49.8 21.0 V G96 – Mt. Lemmon Survey MPS 169219
2006 02 07.50770 14 06 09.79 -10 44 50.4 20.8 V G96 – Mt. Lemmon Survey MPS 169219
2006 02 07.51428 14 06 09.97 -10 44 50.9 20.2 V G96 – Mt. Lemmon Survey MPS 169219
2006 03 23.36601 14 09 06.08 -09 13 15.5 20.2 V 691 – Steward Observatory, Kitt Peak-Spacewatch MPS 169219
2006 03 23.38344 14 09 05.60 -09 13 10.3 20.2 V 691 – Steward Observatory, Kitt Peak-Spacewatch MPS 169219
2006 03 23.40084 14 09 05.10 -09 13 05.5 20.2 V 691 – Steward Observatory, Kitt Peak-Spacewatch MPS 169219
2006 04 02.28919 14 03 45.31 -08 20 45.2 20.1 V 691 – Steward Observatory, Kitt Peak-Spacewatch MPS 168894
2006 04 02.31282 14 03 44.33 -08 20 36.2 19.5 V 691 – Steward Observatory, Kitt Peak-Spacewatch MPS 168894
2006 04 02.33015 14 03 43.71 -08 20 31.3 19.8 V 691 – Steward Observatory, Kitt Peak-Spacewatch MPS 168894
2006 04 02.37546 14 03 41.90 -08 20 16.0 20.0 V G96 – Mt. Lemmon Survey MPS 168894
2006 04 02.38182 14 03 41.68 -08 20 13.9 20.1 V G96 – Mt. Lemmon Survey MPS 168894
2006 04 02.39458 14 03 41.18 -08 20 09.7 19.9 V G96 – Mt. Lemmon Survey MPS 168894
2006 04 07.28099 14 00 29.31 -07 52 00.1 19.8 V 691 – Steward Observatory, Kitt Peak-Spacewatch MPS 168894
2006 04 07.29836 14 00 28.57 -07 51 54.2 19.7 V 691 – Steward Observatory, Kitt Peak-Spacewatch MPS 168894
2006 04 07.31571 14 00 27.84 -07 51 48.1 19.9 V 691 – Steward Observatory, Kitt Peak-Spacewatch MPS 168894
2006 04 09.28329 13 59 06.00 -07 40 14.3 19.5 V G96 – Mt. Lemmon Survey MPS 168894
2006 04 09.28992 13 59 05.71 -07 40 11.7 19.7 V G96 – Mt. Lemmon Survey MPS 168894
2006 04 09.29667 13 59 05.42 -07 40 09.7 19.6 V G96 – Mt. Lemmon Survey MPS 168894
2006 04 09.30330 13 59 05.13 -07 40 07.6 19.5 V G96 – Mt. Lemmon Survey MPS 168894
2006 04 18.40317 13 52 26.47 -06 46 30.4 19.7 R 644 – Palomar Mountain/NEAT MPS 169219
2006 04 18.42574 13 52 25.40 -06 46 22.1 19.1 R 644 – Palomar Mountain/NEAT MPS 169219
2006 04 18.44935 13 52 24.33 -06 46 13.8 19.6 R 644 – Palomar Mountain/NEAT MPS 169219
2006 04 24.27553 13 48 05.29 -06 13 10.9 19.1 R 699 – Lowell Observatory-LONEOS MPS 169949
2006 04 24.29742 13 48 04.30 -06 13 03.9   699 – Lowell Observatory-LONEOS MPS 169949
2006 04 24.31931 13 48 03.29 -06 12 57.0   699 – Lowell Observatory-LONEOS MPS 169949
2006 04 24.34122 13 48 02.30 -06 12 50.0   699 – Lowell Observatory-LONEOS MPS 169949
2006 04 26.29451 13 46 37.04 -06 02 14.1   291 – LPL/Spacewatch II MPS 169949
2006 04 26.30158 13 46 36.71 -06 02 11.9   291 – LPL/Spacewatch II MPS 169949
2006 04 26.30565 13 46 36.52 -06 02 10.4   291 – LPL/Spacewatch II MPS 169949
2006 05 05.15789 13 40 34.42 -05 18 39.4 19.9 V 691 – Steward Observatory, Kitt Peak-Spacewatch MPS 170885
2006 05 05.17531 13 40 33.73 -05 18 35.4 19.9 V 691 – Steward Observatory, Kitt Peak-Spacewatch MPS 170885
2006 05 05.19272 13 40 33.04 -05 18 30.6 20.0 V 691 – Steward Observatory, Kitt Peak-Spacewatch MPS 170885
2008 10 02.27392 23 50 23.42 -01 54 53.5 19.8 V G96 – Mt. Lemmon Survey MPS 258000
2008 10 02.28139 23 50 23.24 -01 54 54.8 19.6 V G96 – Mt. Lemmon Survey MPS 258000
2008 10 02.28892 23 50 22.77 -01 54 57.3 20.7 V G96 – Mt. Lemmon Survey MPS 258000
2008 10 02.29646 23 50 22.52 -01 54 59.7 20.6 V G96 – Mt. Lemmon Survey MPS 258000
2008 11 02.13472 23 35 26.52 -04 01 35.8 20.5 V G96 – Mt. Lemmon Survey MPS 263265
2008 11 02.14295 23 35 26.30 -04 01 37.0 20.7 V G96 – Mt. Lemmon Survey MPS 263265
2008 11 02.15130 23 35 26.23 -04 01 37.9 20.4 V G96 – Mt. Lemmon Survey MPS 263265
2008 11 02.15954 23 35 26.08 -04 01 39.2 21.0 V G96 – Mt. Lemmon Survey MPS 263265
2009 09 30.43586 05 08 49.16 +17 22 29.0 21.2 V G96 – Mt. Lemmon Survey MPS 296966
2009 09 30.44252 05 08 49.30 +17 22 28.9 21.0 V G96 – Mt. Lemmon Survey MPS 296966
2009 09 30.44906 05 08 49.38 +17 22 28.3 22.0 V G96 – Mt. Lemmon Survey MPS 296966
2009 09 30.45587 05 08 49.56 +17 22 27.3 20.7 V G96 – Mt. Lemmon Survey MPS 296966
2009 11 26.32097 04 51 51.91 +15 06 42.1 19.5 V G96 – Mt. Lemmon Survey MPS 304971
2009 11 26.32677 04 51 51.58 +15 06 41.4 19.6 V G96 – Mt. Lemmon Survey MPS 304971
2009 11 26.33259 04 51 51.30 +15 06 40.2 19.5 V G96 – Mt. Lemmon Survey MPS 304971
2009 11 26.33846 04 51 51.01 +15 06 39.6 19.4 V G96 – Mt. Lemmon Survey MPS 304971
2009 11 26.34418 04 51 50.68 +15 06 38.7 19.5 V G96 – Mt. Lemmon Survey MPS 304971
2010 02 19.592378 04 25 44.91 +15 56 22.0   C51 – WISE MPS 313299
2010 02 19.72468 04 25 49.74 +15 56 48.4   C51 – WISE MPS 313299
2010 02 19.72481 04 25 49.89 +15 56 48.1   C51 – WISE MPS 313299
2010 02 19.857115 04 25 54.74 +15 57 14.0   C51 – WISE MPS 371351
2010 02 19.989418 04 25 59.69 +15 57 40.3   C51 – WISE MPS 371351
2010 02 20.055634 04 26 02.20 +15 57 52.4   C51 – WISE MPS 371351
2010 02 20.121722 04 26 04.63 +15 58 06.3   C51 – WISE MPS 371351
2010 02 20.187938 04 26 07.11 +15 58 19.7   C51 – WISE MPS 313299
2010 02 20.254027 04 26 09.60 +15 58 33.1   C51 – WISE MPS 313299
2010 02 20.320242 04 26 12.13 +15 58 46.7   C51 – WISE MPS 313299
2010 02 20.452546 04 26 17.16 +15 59 12.8   C51 – WISE MPS 313299
2010 02 20.584851 04 26 22.20 +15 59 38.5   C51 – WISE MPS 313299
2010 02 20.717282 04 26 27.18 +16 00 04.9   C51 – WISE MPS 313299
2010 02 20.849586 04 26 32.40 +16 00 30.7   C51 – WISE MPS 371351
2011 02 06.16477 12 03 22.61 -01 27 01.7 19.9 R J24 – Observatorio Altamira MPS 371351
2011 02 06.18257 12 03 22.35 -01 26 58.1 21.0 R J24 – Observatorio Altamira MPS 371351
2011 02 06.19324 12 03 22.30 -01 26 56.1 20.5 R J24 – Observatorio Altamira MPS 371351
2011 02 08.41958 12 02 58.84 -01 20 45.2 20.2 V G96 – Mt. Lemmon Survey MPS 371351
2011 02 08.42773 12 02 58.74 -01 20 43.8 20.1 V G96 – Mt. Lemmon Survey MPS 371351
2011 02 08.43585 12 02 58.63 -01 20 42.2 20.0 V G96 – Mt. Lemmon Survey MPS 371351
2011 02 08.44395 12 02 58.52 -01 20 40.7 19.9 V G96 – Mt. Lemmon Survey MPS 371351
2011 02 22.34492 11 58 01.01 -00 23 06.9 19.7 V 691 – Steward Observatory, Kitt Peak-Spacewatch MPS 371901
2011 02 22.36265 11 58 00.43 -00 23 01.2 19.9 V 691 – Steward Observatory, Kitt Peak-Spacewatch MPS 371901
2011 02 22.38041 11 57 59.88 -00 22 55.9 20.0 V 691 – Steward Observatory, Kitt Peak-Spacewatch MPS 371901
